Home   Weather   Fort Simpson   Past weeks

Flag for Canada Past Weather in Fort Simpson, Northwest Territories, Canada — Yesterday and Last 2 Weeks

27 °F

Light snow. Mostly cloudy.

Feels Like: 21 °F
Forecast: 24 / 29 °F
Wind: 5 mph from Northwest

Location: Fort Simpson

Current Time: Oct 23, 2016 at 8:31:31 AM

Latest Report: Oct 23, 2016 at 8:00 AM

Visibility: 10 mi

Pressure: 30.31 "Hg

Humidity: 93%

Dew Point: 25 °F

Location of Fort SimpsonLocation

Past Weather in Fort Simpson — Graph


Fort Simpson Temperature Yesterday

Maximum temperature yesterday: 27 °F (at 1:00 PM)
Minimum temperature yesterday: 23 °F (at 8:00 AM)
Average temperature yesterday: 25 °F

High & Low Weather Summary for the Past Weeks

High37 °F (Oct 10, 4:00 PM)100% (Oct 11, 10:00 AM)30.36 "Hg (Oct 11, 10:00 AM)
Low14 °F (Oct 19, 3:00 AM)52% (Oct 10, 4:00 PM)29.65 "Hg (Oct 16, 1:00 AM)
Average26 °F84%30.00 "Hg
* Reported Oct 8 7:00 AM — Oct 23 7:00 AM, Fort Simpson, Weather by CustomWeather, © 2016

Note: Actual official high and low records may vary slightly from our data, if they occured in-between our weather recording intervals... More about our weather records


Fort Simpson Weather History for the Previous 24 Hours

Scroll right to see more
Time TempWeatherWind HumidityBarometerVisibility
7:00 AM
Sun, Oct 23
28 °FLight snow. Mostly cloudy.7 mph93%30.30 "Hg15 mi
6:00 AM28 °FLight snow. Mostly cloudy.7 mph93%30.29 "Hg15 mi
5:00 AM28 °FLight snow. Mostly cloudy.9 mph93%30.29 "Hg15 mi
4:00 AM28 °FLow clouds.9 mph93%30.27 "Hg15 mi
3:00 AM28 °FMostly cloudy.10 mph93%30.26 "Hg15 mi
2:00 AM28 °FLow clouds.7 mph93%30.25 "Hg15 mi
1:00 AM28 °FLow clouds.7 mph93%30.23 "Hg15 mi
12:00 AM27 °FLow clouds.8 mph100%30.22 "Hg15 mi
11:00 PM
Sat, Oct 22
27 °FLow clouds.7 mph100%30.20 "Hg15 mi
10:00 PM27 °FLow clouds.5 mph93%30.18 "Hg15 mi
9:00 PM27 °FOvercast.5 mph93%30.17 "Hg15 mi
8:00 PM27 °FMostly cloudy.8 mph93%30.15 "Hg15 mi
7:00 PM27 °FLow clouds.7 mph93%30.14 "Hg15 mi
6:00 PM27 °FLow clouds.7 mph93%30.11 "Hg15 mi
5:00 PM27 °FLow clouds.7 mph93%30.10 "Hg15 mi
4:00 PM27 °FLow clouds.8 mph93%30.08 "Hg15 mi
3:00 PM27 °FLow clouds.9 mph93%30.06 "Hg15 mi
2:00 PM27 °FLow clouds.9 mph93%30.04 "Hg15 mi
1:00 PM27 °FLow clouds.8 mph93%30.02 "Hg15 mi
12:00 PM25 °FLow clouds.6 mph93%30.01 "Hg15 mi
11:00 AM23 °FSnow flurries. Low clouds.5 mph100%29.99 "Hg15 mi
10:50 AM23 °FSnow flurries. Low clouds.6 mph100%29.98 "Hg12 mi
10:00 AM23 °FIce fog.7 mph100%29.97 "Hg10 mi
9:00 AM23 °FIce fog.5 mph100%29.94 "Hg6 mi
8:00 AM23 °FIce fog.5 mph100%29.93 "Hg2 mi
Weather by CustomWeather, © 2016

See weather overviewHow to use our weather pages